BAW21B EGLL-KLAX

Flight info

Callsign BAW21B
Flight time N/A
Altitude 32000
Route CPT L9 DIDZA N14 OKTAD DCT MEDOG DCT VATRY DCT KORAK DCT REVNU DCT PIGET DCT SUNOT/M084F340 NATA HOIST/N0495F340 DCT 5430N06000W 53N070W/N0491F360 51N080W 4830N09000W DCT KP12G DCT KP84A DCT KD63U/N0484F380 DCT KU51Q DCT PROMT Q88 HAKMN ANJLL4
Aircraft B77W/H-SDE1E2E3FGHIJ2J3J4J5M1RWXY/LB1D1

Departure

Time N/A
Airport London Heathrow Airport (EGLL)

Arrival

Time 2026-05-05 21:48
Airport Los Angeles International Airport (KLAX)
Time Latitude Longitude Altitude Speed Heading
2026-05-05 20:56 36.98720 -112.74335 37960 ft 455 kts 233°
2026-05-05 20:56 36.94938 -112.80675 37970 ft 457 kts 233°
2026-05-05 20:57 36.91128 -112.87051 37968 ft 456 kts 233°
2026-05-05 20:57 36.87332 -112.93391 37970 ft 459 kts 233°
2026-05-05 20:58 36.83526 -112.99735 37964 ft 457 kts 233°
2026-05-05 20:58 36.79712 -113.06080 37967 ft 457 kts 233°
2026-05-05 20:59 36.75901 -113.12410 37964 ft 456 kts 233°
2026-05-05 20:59 36.72082 -113.18740 37960 ft 458 kts 233°
2026-05-05 21:00 36.68260 -113.25064 37970 ft 455 kts 233°
2026-05-05 21:00 36.64449 -113.31358 37954 ft 456 kts 233°
2026-05-05 21:01 36.60668 -113.37721 37961 ft 458 kts 235°
2026-05-05 21:01 36.57017 -113.44198 37952 ft 458 kts 235°
2026-05-05 21:02 36.53345 -113.50687 37944 ft 459 kts 235°
2026-05-05 21:02 36.49683 -113.57134 37954 ft 457 kts 235°
2026-05-05 21:03 36.45995 -113.63608 37957 ft 458 kts 235°
2026-05-05 21:03 36.42335 -113.70016 37958 ft 457 kts 234°
2026-05-05 21:04 36.38652 -113.76450 37947 ft 458 kts 234°
2026-05-05 21:04 36.34981 -113.82851 37949 ft 457 kts 234°
2026-05-05 21:05 36.31305 -113.89249 37931 ft 458 kts 234°
2026-05-05 21:05 36.27613 -113.95662 37905 ft 458 kts 234°
2026-05-05 21:06 36.23922 -114.02062 37871 ft 457 kts 234°
2026-05-05 21:06 36.20206 -114.08491 37885 ft 458 kts 234°
2026-05-05 21:07 36.16508 -114.14879 37882 ft 460 kts 234°
2026-05-05 21:07 36.12793 -114.21282 37887 ft 461 kts 234°
2026-05-05 21:08 36.09061 -114.27693 37881 ft 462 kts 233°
2026-05-05 21:08 36.04866 -114.33706 37877 ft 461 kts 229°
2026-05-05 21:09 36.00589 -114.39632 37867 ft 461 kts 229°
2026-05-05 21:09 35.96331 -114.45521 37871 ft 461 kts 229°
2026-05-05 21:10 35.92075 -114.51399 37880 ft 461 kts 229°
2026-05-05 21:10 35.87808 -114.57283 37890 ft 459 kts 229°
2026-05-05 21:11 35.83547 -114.63147 37890 ft 462 kts 229°
2026-05-05 21:11 35.79248 -114.69054 37884 ft 462 kts 229°
2026-05-05 21:12 35.74987 -114.74899 37894 ft 461 kts 228°
2026-05-05 21:12 35.70712 -114.80752 37898 ft 460 kts 228°
2026-05-05 21:13 35.66436 -114.86597 37894 ft 460 kts 229°
2026-05-05 21:13 35.62166 -114.92440 37913 ft 459 kts 229°
2026-05-05 21:14 35.57884 -114.98293 37920 ft 461 kts 229°
2026-05-05 21:14 35.53614 -115.04119 37914 ft 460 kts 229°
2026-05-05 21:15 35.49314 -115.09943 37915 ft 460 kts 227°
2026-05-05 21:15 35.44928 -115.15665 37919 ft 461 kts 227°
2026-05-05 21:16 35.40537 -115.21384 37913 ft 460 kts 228°
2026-05-05 21:16 35.36171 -115.27066 37916 ft 459 kts 228°
2026-05-05 21:17 35.31779 -115.32777 37911 ft 461 kts 228°
2026-05-05 21:17 35.27372 -115.38500 37923 ft 461 kts 228°
2026-05-05 21:18 35.23004 -115.44163 37921 ft 459 kts 228°
2026-05-05 21:18 35.18595 -115.49869 37921 ft 460 kts 228°
2026-05-05 21:19 35.14196 -115.55554 37919 ft 460 kts 228°
2026-05-05 21:19 35.09816 -115.61189 37926 ft 460 kts 228°
2026-05-05 21:20 35.05398 -115.66836 37922 ft 458 kts 227°
2026-05-05 21:20 35.00995 -115.72458 37915 ft 460 kts 227°
2026-05-05 21:21 34.96571 -115.78096 37910 ft 461 kts 227°
2026-05-05 21:21 34.92151 -115.83720 37915 ft 461 kts 227°
2026-05-05 21:22 34.88232 -115.88702 37920 ft 460 kts 227°
2026-05-05 21:22 34.83805 -115.94318 37919 ft 458 kts 227°
2026-05-05 21:23 34.79415 -115.99876 37616 ft 451 kts 228°
2026-05-05 21:23 34.77251 -116.02615 36887 ft 454 kts 227°
2026-05-05 21:23 34.75071 -116.05389 36108 ft 458 kts 228°
2026-05-05 21:24 34.72865 -116.08204 35343 ft 461 kts 228°
2026-05-05 21:24 34.70641 -116.11038 34535 ft 464 kts 228°
2026-05-05 21:24 34.68413 -116.13874 33733 ft 467 kts 228°
2026-05-05 21:24 34.66171 -116.16727 32977 ft 470 kts 227°
2026-05-05 21:25 34.63900 -116.19613 32256 ft 475 kts 227°
2026-05-05 21:25 34.61602 -116.22530 31403 ft 482 kts 227°
2026-05-05 21:25 34.59285 -116.25468 30542 ft 478 kts 227°
2026-05-05 21:25 34.57005 -116.28357 30113 ft 471 kts 227°
2026-05-05 21:26 34.54760 -116.31197 29990 ft 460 kts 228°
2026-05-05 21:26 34.52568 -116.33968 29732 ft 451 kts 228°
2026-05-05 21:26 34.50397 -116.36713 29233 ft 448 kts 228°
2026-05-05 21:26 34.48243 -116.39433 28741 ft 445 kts 228°
2026-05-05 21:27 34.46099 -116.42140 28120 ft 444 kts 228°
2026-05-05 21:27 34.43966 -116.44829 27603 ft 441 kts 228°
2026-05-05 21:27 34.42017 -116.47625 27127 ft 434 kts 237°
2026-05-05 21:27 34.40466 -116.50716 26611 ft 428 kts 244°
2026-05-05 21:28 34.39130 -116.53915 26073 ft 426 kts 245°
2026-05-05 21:28 34.37814 -116.57111 25552 ft 423 kts 245°
2026-05-05 21:28 34.36508 -116.60281 25017 ft 420 kts 245°
2026-05-05 21:28 34.35211 -116.63425 24480 ft 417 kts 245°
2026-05-05 21:29 34.33919 -116.66555 23967 ft 414 kts 245°
2026-05-05 21:29 34.32667 -116.69612 23417 ft 411 kts 245°
2026-05-05 21:29 34.31426 -116.72705 22901 ft 407 kts 245°
2026-05-05 21:29 34.30194 -116.75777 22360 ft 404 kts 245°
2026-05-05 21:30 34.28980 -116.78799 21843 ft 401 kts 245°
2026-05-05 21:30 34.27758 -116.81836 21300 ft 398 kts 245°
2026-05-05 21:30 34.26554 -116.84825 20797 ft 395 kts 246°
2026-05-05 21:30 34.25368 -116.87766 20247 ft 392 kts 245°
2026-05-05 21:31 34.24185 -116.90698 19761 ft 389 kts 245°
2026-05-05 21:31 34.23008 -116.93610 19282 ft 385 kts 246°
2026-05-05 21:31 34.21833 -116.96512 18829 ft 381 kts 246°
2026-05-05 21:31 34.20810 -116.99445 18301 ft 377 kts 253°
2026-05-05 21:32 34.19986 -117.02447 17781 ft 374 kts 254°
2026-05-05 21:32 34.19191 -117.05398 17304 ft 370 kts 253°
2026-05-05 21:32 34.18396 -117.08343 16842 ft 367 kts 253°
2026-05-05 21:32 34.17608 -117.11254 16318 ft 364 kts 253°
2026-05-05 21:33 34.16828 -117.14134 15827 ft 361 kts 253°
2026-05-05 21:33 34.16040 -117.17033 15341 ft 359 kts 253°
2026-05-05 21:33 34.15264 -117.19852 15063 ft 350 kts 253°
2026-05-05 21:33 34.14504 -117.22616 14761 ft 343 kts 253°
2026-05-05 21:34 34.13750 -117.25352 14322 ft 341 kts 253°
2026-05-05 21:34 34.13006 -117.28052 14005 ft 335 kts 253°
2026-05-05 21:34 34.12273 -117.30711 13977 ft 340 kts 253°
2026-05-05 21:34 34.11520 -117.33443 13971 ft 339 kts 253°
2026-05-05 21:35 34.10779 -117.36124 13971 ft 339 kts 253°
2026-05-05 21:35 34.10052 -117.38818 13861 ft 340 kts 255°
2026-05-05 21:35 34.09379 -117.41538 13334 ft 341 kts 255°
2026-05-05 21:35 34.08700 -117.44297 12826 ft 341 kts 255°
2026-05-05 21:36 34.08031 -117.46993 12388 ft 338 kts 255°
2026-05-05 21:36 34.07354 -117.49702 11960 ft 336 kts 255°
2026-05-05 21:36 34.06680 -117.52364 11550 ft 327 kts 254°
2026-05-05 21:36 34.06025 -117.54924 11438 ft 313 kts 254°
2026-05-05 21:37 34.05395 -117.57386 11206 ft 306 kts 254°
2026-05-05 21:37 34.04777 -117.59801 10962 ft 300 kts 255°
2026-05-05 21:37 34.04161 -117.62209 10717 ft 294 kts 255°
2026-05-05 21:37 34.03562 -117.64548 10480 ft 291 kts 255°
2026-05-05 21:38 34.02968 -117.66866 10248 ft 290 kts 254°
2026-05-05 21:38 34.02378 -117.69189 10012 ft 289 kts 257°
2026-05-05 21:38 34.02023 -117.71561 9753 ft 289 kts 264°
2026-05-05 21:38 34.01789 -117.73966 9395 ft 289 kts 265°
2026-05-05 21:39 34.01566 -117.76355 9048 ft 288 kts 264°
2026-05-05 21:39 34.01338 -117.78745 8710 ft 286 kts 265°
2026-05-05 21:39 34.01109 -117.81117 8377 ft 285 kts 264°
2026-05-05 21:39 34.00877 -117.83499 8043 ft 283 kts 264°
2026-05-05 21:40 34.00647 -117.85851 7718 ft 282 kts 265°
2026-05-05 21:40 34.00419 -117.88181 7395 ft 281 kts 264°
2026-05-05 21:40 34.00191 -117.90506 7069 ft 279 kts 264°
2026-05-05 21:40 33.99963 -117.92827 6750 ft 278 kts 264°
2026-05-05 21:41 33.99737 -117.95130 6455 ft 276 kts 264°
2026-05-05 21:41 33.99514 -117.97405 6165 ft 274 kts 264°
2026-05-05 21:41 33.99280 -117.99673 5873 ft 274 kts 263°
2026-05-05 21:41 33.99032 -118.01925 5641 ft 269 kts 263°
2026-05-05 21:42 33.98795 -118.04137 5418 ft 262 kts 263°
2026-05-05 21:42 33.98575 -118.06296 5212 ft 254 kts 264°
2026-05-05 21:42 33.98374 -118.08364 5007 ft 247 kts 264°
2026-05-05 21:42 33.98181 -118.10402 4797 ft 240 kts 264°
2026-05-05 21:43 33.97997 -118.12376 4595 ft 235 kts 264°
2026-05-05 21:43 33.97817 -118.14301 4283 ft 228 kts 264°
2026-05-05 21:43 33.97638 -118.16179 3999 ft 222 kts 264°
2026-05-05 21:43 33.97462 -118.17996 3722 ft 215 kts 264°
2026-05-05 21:44 33.97290 -118.19746 3452 ft 209 kts 263°
2026-05-05 21:44 33.97121 -118.21451 3187 ft 204 kts 263°
2026-05-05 21:44 33.96954 -118.23119 2936 ft 198 kts 263°
2026-05-05 21:44 33.96788 -118.24763 2689 ft 198 kts 262°
2026-05-05 21:45 33.96620 -118.26418 2419 ft 199 kts 262°
2026-05-05 21:45 33.96450 -118.28082 2148 ft 200 kts 262°
2026-05-05 21:45 33.96285 -118.29715 1878 ft 188 kts 262°
2026-05-05 21:45 33.96133 -118.31220 1634 ft 175 kts 262°
2026-05-05 21:46 33.95989 -118.32630 1399 ft 165 kts 261°
2026-05-05 21:46 33.95854 -118.33944 1172 ft 149 kts 261°
2026-05-05 21:46 33.95731 -118.35146 992 ft 142 kts 261°
2026-05-05 21:46 33.95614 -118.36320 767 ft 142 kts 261°
2026-05-05 21:47 33.95497 -118.37495 572 ft 139 kts 261°
2026-05-05 21:47 33.95380 -118.38627 404 ft 138 kts 261°
2026-05-05 21:47 33.95265 -118.39774 238 ft 137 kts 261°
2026-05-05 21:47 33.95141 -118.40884 131 ft 121 kts 263°
2026-05-05 21:48 33.95055 -118.41716 130 ft 78 kts 264°
2026-05-05 21:48 33.95011 -118.42162 127 ft 28 kts 262°
2026-05-05 21:48 33.94941 -118.42370 125 ft 24 kts 237°
2026-05-05 21:48 33.94832 -118.42490 124 ft 18 kts 192°
2026-05-05 21:49 33.94721 -118.42483 122 ft 10 kts 174°
2026-05-05 21:49 33.94664 -118.42462 121 ft 6 kts 110°
2026-05-05 21:49 33.94665 -118.42408 122 ft 5 kts 84°
2026-05-05 21:49 33.94672 -118.42340 124 ft 15 kts 82°
2026-05-05 21:50 33.94694 -118.42139 125 ft 31 kts 84°
2026-05-05 21:50 33.94720 -118.41883 127 ft 29 kts 83°
2026-05-05 21:50 33.94745 -118.41640 127 ft 28 kts 84°
2026-05-05 21:50 33.94769 -118.41438 129 ft 19 kts 74°
2026-05-05 21:51 33.94780 -118.41318 130 ft 11 kts 129°
2026-05-05 21:51 33.94704 -118.41287 129 ft 11 kts 172°
2026-05-05 21:51 33.94620 -118.41277 127 ft 12 kts 174°
2026-05-05 21:51 33.94532 -118.41263 127 ft 12 kts 173°
2026-05-05 21:52 33.94389 -118.41232 127 ft 6 kts 122°
2026-05-05 21:52 33.94390 -118.41190 127 ft 5 kts 81°
2026-05-05 21:52 33.94396 -118.41142 127 ft 4 kts 83°
2026-05-05 21:53 33.94397 -118.41138 127 ft 0 kts 83°